Powrót do katalogu

NOAA 16 DEB

AktywnySSO
NORAD 41281·DEBRIS·🇺🇸 United States

Wystrzelony Sep 21, 2000 z Vandenberg Space Force Base

Loading…

Następne Przeloty (najbliższe 24 godziny)

TLE

ŚwieżeSource: Space-Track

Epoka: Sep 13, 2026, 10:25 UTC

1 41281U 00055GH  26256.43464048  .00002938  00000-0  11951-2 0  9991
2 41281  98.8050 324.1937 0027682 316.4107  43.4886 14.28095892552063

Śledź NOAA 16 DEB w czasie rzeczywistym z AllMySat

Download on the App Store